This is the latest recevied weather packets stored in our database for station/object DB0TGO-14. If no packets are shown the sender has not sent any weather packets the latest 1 day(s).
| Time | Temp. | Humidity | Pressure | Rain* | Wind** | Luminosity | Snow |
|---|---|---|---|---|---|---|---|
| 1777968245 | 16.67° C | 79% | 1010.4 hPa | 0 mm | 1.34 m/s, 68° | - | - |
| 1777968142 | 16.67° C | 79% | 1010.4 hPa | 0 mm | 1.34 m/s, 68° | - | - |
| 1777968040 | 16.67° C | 78% | 1010.4 hPa | 0 mm | 1.34 m/s, 68° | - | - |
| 1777967934 | 16.67° C | 78% | 1010.5 hPa | 0 mm | 0.89 m/s, 158° | - | - |
| 1777967830 | 16.67° C | 79% | 1010.5 hPa | 0 mm | 1.34 m/s, 68° | - | - |
| 1777967722 | 16.67° C | 79% | 1010.5 hPa | 0 mm | 1.34 m/s, 68° | - | - |
| 1777967625 | 16.67° C | 78% | 1010.5 hPa | 0 mm | 1.34 m/s, 112° | - | - |
| 1777967520 | 16.67° C | 78% | 1010.5 hPa | 0 mm | 1.34 m/s, 180° | - | - |
| 1777967310 | 16.11° C | 78% | 1010.5 hPa | 0 mm | 1.34 m/s, 90° | - | - |
| 1777967278 | 16.11° C | 78% | 1010.5 hPa | 0 mm | 1.34 m/s, 112° | - | - |
| 1777967205 | 16.11° C | 79% | 1010.5 hPa | 0 mm | 1.34 m/s, 180° | - | - |
| 1777967100 | 16.11° C | 79% | 1010.5 hPa | 0 mm | 1.79 m/s, 68° | - | - |
| 1777966995 | 16.11° C | 79% | 1010.5 hPa | 0 mm | 1.79 m/s, 90° | - | - |
| 1777966893 | 16.11° C | 78% | 1010.5 hPa | 0 mm | 2.24 m/s, 112° | - | - |
| 1777966790 | 16.11° C | 79% | 1010.4 hPa | 0 mm | 1.79 m/s, 180° | - | - |
| 1777966676 | 16.11° C | 80% | 1010.5 hPa | 0 mm | 1.79 m/s, 68° | - | - |
| 1777966570 | 16.11° C | 80% | 1010.4 hPa | 0 mm | 1.79 m/s, 68° | - | - |
| 1777966450 | 16.11° C | 80% | 1010.4 hPa | 0 mm | 1.79 m/s, 112° | - | - |
| 1777966355 | 16.11° C | 79% | 1010.4 hPa | 0 mm | 1.34 m/s, 90° | - | - |
| 1777966255 | 16.11° C | 79% | 1010.3 hPa | 0 mm | 1.34 m/s, 90° | - | - |
| 1777966218 | 16.11° C | 78% | 1010.3 hPa | 0 mm | 1.34 m/s, 68° | - | - |
| 1777966150 | 16.11° C | 79% | 1010.3 hPa | 0 mm | 1.34 m/s, 90° | - | - |
| 1777966040 | 16.11° C | 79% | 1010.2 hPa | 0 mm | 1.34 m/s, 68° | - | - |
| 1777965922 | 16.11° C | 79% | 1010.3 hPa | 0 mm | 1.34 m/s, 68° | - | - |
| 1777965805 | 16.11° C | 80% | 1010.3 hPa | 0 mm | 1.34 m/s, 90° | - | - |
* Rain latest hour (hover to see other rain measurements)
** Current wind speed in m/s (hover to see current wind gust speed)